sat.trackr.live / text

‹ back to catalog

STARLINK-36346

NORAD 67818 · 2026-032X

PAYLOAD ACTIVE UNKNOWN

§ Identity

Operator
Country
US
Launch date
2026-02-15
Launch site
AFWTR
Launch vehicle
Mass (kg)
RCS (m²)

Purposes: comms

External: N2YO · Heavens-Above · Gunter

§ Orbital elements

Epoch: 2026-05-25T02:07:34.601952Z

Period
93.91 min
Inclination
97.2861°
Eccentricity
0.0001594
Mean motion
15.33440368 rev/d
Perigee alt
464.5 km
Apogee alt
466.6 km
Semi-major
6,843.7 km
B*
5.5632e-4
RAAN
333.2538°
Arg perigee
80.7312°
Mean anomaly
279.4111°
Rev number
1,667

§ Raw data

STARLINK-363461 67818U 26032X   26145.08859493  .00017925  00000+0  55632-3 0  99942 67818  97.2861 333.2538 0001594  80.7312 279.4111 15.33440368 16674

JSON: /api/v1/satellites/67818 · /tle

For live sub-satellite position, see the globe view (requires WebGL).

§ Visibility from observer

Set your observer location to see the next 7 days of passes ≥ 10°. The values pass through the URL so the page stays shareable.

No JS? Fill the form by hand. The geolocation button needs JavaScript.